Year,Month,Day,Hour,Minute,Value (Times are PST for windspeed in km/hr)
2018,02,27,00,00,2.50
2018,02,27,00,01,0.60
2018,02,27,00,02,3.10
2018,02,27,00,03,7.50
2018,02,27,00,04,6.30
2018,02,27,00,05,4.10
2018,02,27,00,06,2.10
2018,02,27,00,07,1.30
2018,02,27,00,08,2.00
2018,02,27,00,09,0.40
2018,02,27,00,10,4.00
2018,02,27,00,11,6.60
2018,02,27,00,12,7.80
2018,02,27,00,13,4.40
2018,02,27,00,14,1.80
2018,02,27,00,15,0.90
2018,02,27,00,16,3.20
2018,02,27,00,17,6.00
2018,02,27,00,18,5.10
2018,02,27,00,19,6.40
2018,02,27,00,20,4.90
2018,02,27,00,21,4.80
2018,02,27,00,22,4.00
2018,02,27,00,23,5.80
2018,02,27,00,24,5.10
2018,02,27,00,25,5.10
2018,02,27,00,26,2.90
2018,02,27,00,27,5.70
2018,02,27,00,28,7.10
2018,02,27,00,29,6.60
2018,02,27,00,30,5.50
2018,02,27,00,31,2.10
2018,02,27,00,32,0.00
2018,02,27,00,33,0.30
2018,02,27,00,34,0.60
2018,02,27,00,35,0.60
2018,02,27,00,36,1.70
2018,02,27,00,37,3.40
2018,02,27,00,38,2.10
2018,02,27,00,39,3.10
2018,02,27,00,40,4.60
2018,02,27,00,41,3.90
2018,02,27,00,42,4.60
2018,02,27,00,43,4.30
2018,02,27,00,44,2.00
2018,02,27,00,45,3.40
2018,02,27,00,46,6.60
2018,02,27,00,47,4.20
2018,02,27,00,48,4.00
2018,02,27,00,49,3.10
2018,02,27,00,50,1.10
2018,02,27,00,51,6.00
2018,02,27,00,52,6.30
2018,02,27,00,53,4.20
2018,02,27,00,54,4.60
2018,02,27,00,55,6.70
2018,02,27,00,56,5.20
2018,02,27,00,57,1.40
2018,02,27,00,58,6.60
2018,02,27,00,59,10.00
2018,02,27,01,00,7.00
2018,02,27,01,01,4.80
2018,02,27,01,02,5.80
2018,02,27,01,03,5.10
2018,02,27,01,04,10.10
2018,02,27,01,05,8.10
2018,02,27,01,06,11.70
2018,02,27,01,07,10.80
2018,02,27,01,08,11.10
2018,02,27,01,09,9.00
2018,02,27,01,10,7.90
2018,02,27,01,11,4.50
2018,02,27,01,12,8.50
2018,02,27,01,13,10.70
2018,02,27,01,14,9.20
2018,02,27,01,15,9.50
2018,02,27,01,16,5.20
2018,02,27,01,17,7.30
2018,02,27,01,18,5.90
2018,02,27,01,19,6.70
2018,02,27,01,20,7.00
2018,02,27,01,21,6.20
2018,02,27,01,22,12.70
2018,02,27,01,23,6.00
2018,02,27,01,24,8.60
2018,02,27,01,25,11.20
2018,02,27,01,26,9.80
2018,02,27,01,27,9.40
2018,02,27,01,28,10.30
2018,02,27,01,29,9.50
2018,02,27,01,30,9.40
2018,02,27,01,31,9.30
2018,02,27,01,32,10.40
2018,02,27,01,33,5.40
2018,02,27,01,34,6.60
2018,02,27,01,35,10.40
2018,02,27,01,36,8.80
2018,02,27,01,37,7.30
2018,02,27,01,38,6.60
2018,02,27,01,39,8.10
2018,02,27,01,40,3.60
2018,02,27,01,41,7.70
2018,02,27,01,42,10.20
2018,02,27,01,43,4.60
2018,02,27,01,44,7.50
2018,02,27,01,45,4.90
2018,02,27,01,46,5.40
2018,02,27,01,47,6.50
2018,02,27,01,48,3.80
2018,02,27,01,49,5.80
2018,02,27,01,50,1.80
2018,02,27,01,51,4.50
2018,02,27,01,52,10.70
2018,02,27,01,53,8.30
2018,02,27,01,54,12.00
2018,02,27,01,55,10.00
2018,02,27,01,56,8.90
2018,02,27,01,57,15.50
2018,02,27,01,58,13.80
2018,02,27,01,59,8.00
2018,02,27,02,00,15.70
2018,02,27,02,01,15.30
2018,02,27,02,02,12.40
2018,02,27,02,03,12.20
2018,02,27,02,04,10.80
2018,02,27,02,05,15.80
2018,02,27,02,06,14.50
2018,02,27,02,07,10.90
2018,02,27,02,08,11.40
2018,02,27,02,09,12.10
2018,02,27,02,10,15.80
2018,02,27,02,11,9.80
2018,02,27,02,12,4.80
2018,02,27,02,13,13.80
2018,02,27,02,14,8.40
2018,02,27,02,15,5.10
2018,02,27,02,16,13.80
2018,02,27,02,17,9.70
2018,02,27,02,18,10.70
2018,02,27,02,19,11.10
2018,02,27,02,20,10.70
2018,02,27,02,21,12.60
2018,02,27,02,22,9.90
2018,02,27,02,23,13.10
2018,02,27,02,24,9.10
2018,02,27,02,25,15.00
2018,02,27,02,26,12.50
2018,02,27,02,27,5.50
2018,02,27,02,28,6.90
2018,02,27,02,29,4.20
2018,02,27,02,30,10.90
2018,02,27,02,31,12.20
2018,02,27,02,32,8.50
2018,02,27,02,33,8.80
2018,02,27,02,34,6.50
2018,02,27,02,35,5.20
2018,02,27,02,36,7.50
2018,02,27,02,37,10.00
2018,02,27,02,38,6.00
2018,02,27,02,39,6.30
2018,02,27,02,40,9.80
2018,02,27,02,41,9.40
2018,02,27,02,42,8.30
2018,02,27,02,43,3.00
2018,02,27,02,44,8.20
2018,02,27,02,45,9.10
2018,02,27,02,46,7.20
2018,02,27,02,47,4.40
2018,02,27,02,48,6.00
2018,02,27,02,49,6.70
2018,02,27,02,50,10.00
2018,02,27,02,51,6.20
2018,02,27,02,52,7.30
2018,02,27,02,53,10.10
2018,02,27,02,54,8.80
2018,02,27,02,55,14.20
2018,02,27,02,56,11.20
2018,02,27,02,57,11.00
2018,02,27,02,58,15.00
2018,02,27,02,59,12.30
2018,02,27,03,00,11.30
2018,02,27,03,01,11.50
2018,02,27,03,02,16.10
2018,02,27,03,03,13.90
2018,02,27,03,04,16.20
2018,02,27,03,05,13.40
2018,02,27,03,06,16.20
2018,02,27,03,07,8.90
2018,02,27,03,08,9.40
2018,02,27,03,09,16.30
2018,02,27,03,10,12.90
2018,02,27,03,11,11.60
2018,02,27,03,12,14.70
2018,02,27,03,13,15.50
2018,02,27,03,14,12.30
2018,02,27,03,15,9.10
2018,02,27,03,16,10.20
2018,02,27,03,17,5.20
2018,02,27,03,18,6.70
2018,02,27,03,19,12.70
2018,02,27,03,20,13.50
2018,02,27,03,21,8.80
2018,02,27,03,22,14.20
2018,02,27,03,23,15.70
2018,02,27,03,24,15.80
2018,02,27,03,25,15.60
2018,02,27,03,26,15.60
2018,02,27,03,27,11.60
2018,02,27,03,28,13.20
2018,02,27,03,29,12.20
2018,02,27,03,30,14.20
2018,02,27,03,31,11.80
2018,02,27,03,32,10.60
2018,02,27,03,33,15.00
2018,02,27,03,34,13.80
2018,02,27,03,35,15.50
2018,02,27,03,36,20.00
2018,02,27,03,37,13.50
2018,02,27,03,38,8.50
2018,02,27,03,39,13.90
2018,02,27,03,40,17.80
2018,02,27,03,41,20.10
2018,02,27,03,42,18.50
2018,02,27,03,43,15.10
2018,02,27,03,44,12.20
2018,02,27,03,45,12.00
2018,02,27,03,46,12.20
2018,02,27,03,47,17.90
2018,02,27,03,48,13.80
2018,02,27,03,49,10.60
2018,02,27,03,50,14.40
2018,02,27,03,51,18.70
2018,02,27,03,52,13.10
2018,02,27,03,53,11.10
2018,02,27,03,54,15.30
2018,02,27,03,55,14.90
2018,02,27,03,56,15.80
2018,02,27,03,57,13.10
2018,02,27,03,58,15.30
2018,02,27,03,59,16.00
2018,02,27,04,00,14.80
2018,02,27,04,01,12.50
2018,02,27,04,02,13.70
2018,02,27,04,03,13.60
2018,02,27,04,04,13.30
2018,02,27,04,05,12.50
2018,02,27,04,06,13.20
2018,02,27,04,07,11.40
2018,02,27,04,08,14.90
2018,02,27,04,09,8.70
2018,02,27,04,10,9.70
2018,02,27,04,11,10.90
2018,02,27,04,12,14.00
2018,02,27,04,13,15.80
2018,02,27,04,14,15.40
2018,02,27,04,15,17.00
2018,02,27,04,16,10.10
2018,02,27,04,17,12.80
2018,02,27,04,18,6.40
2018,02,27,04,19,4.20
2018,02,27,04,20,6.10
2018,02,27,04,21,7.70
2018,02,27,04,22,9.70
2018,02,27,04,23,7.90
2018,02,27,04,24,10.40
2018,02,27,04,25,10.00
2018,02,27,04,26,13.70
2018,02,27,04,27,12.00
2018,02,27,04,28,9.40
2018,02,27,04,29,12.50
2018,02,27,04,30,9.40
2018,02,27,04,31,6.60
2018,02,27,04,32,6.90
2018,02,27,04,33,7.30
2018,02,27,04,34,9.00
2018,02,27,04,35,6.10
2018,02,27,04,36,10.90
2018,02,27,04,37,7.80
2018,02,27,04,38,8.40
2018,02,27,04,39,7.50
2018,02,27,04,40,10.30
2018,02,27,04,41,7.60
2018,02,27,04,42,7.20
2018,02,27,04,43,6.50
2018,02,27,04,44,2.70
2018,02,27,04,45,5.70
2018,02,27,04,46,10.30
2018,02,27,04,47,11.00
2018,02,27,04,48,8.90
2018,02,27,04,49,10.50
2018,02,27,04,50,8.20
2018,02,27,04,51,10.00
2018,02,27,04,52,9.70
2018,02,27,04,53,6.00
2018,02,27,04,54,8.20
2018,02,27,04,55,8.80
2018,02,27,04,56,8.30
2018,02,27,04,57,10.90
2018,02,27,04,58,9.20
2018,02,27,04,59,11.60
2018,02,27,05,00,11.60
2018,02,27,05,01,11.70
2018,02,27,05,02,10.70
2018,02,27,05,03,10.40
2018,02,27,05,04,13.10
2018,02,27,05,05,9.40
2018,02,27,05,06,8.60
2018,02,27,05,07,8.50
2018,02,27,05,08,10.00
2018,02,27,05,09,11.70
2018,02,27,05,10,12.80
2018,02,27,05,11,15.20
2018,02,27,05,12,10.00
2018,02,27,05,13,7.50
2018,02,27,05,14,6.30
2018,02,27,05,15,10.20
2018,02,27,05,16,8.60
2018,02,27,05,17,10.90
2018,02,27,05,18,11.60
2018,02,27,05,19,9.30
2018,02,27,05,20,8.40
2018,02,27,05,21,7.10
2018,02,27,05,22,7.80
2018,02,27,05,23,7.00
2018,02,27,05,24,8.10
2018,02,27,05,25,6.70
2018,02,27,05,26,11.30
2018,02,27,05,27,12.00
2018,02,27,05,28,8.80
2018,02,27,05,29,7.90
2018,02,27,05,30,9.70
2018,02,27,05,31,8.60
2018,02,27,05,32,7.10
2018,02,27,05,33,8.00
2018,02,27,05,34,6.90
2018,02,27,05,35,5.90
2018,02,27,05,36,7.30
2018,02,27,05,37,5.50
2018,02,27,05,38,5.40
2018,02,27,05,39,6.60
2018,02,27,05,40,7.90
2018,02,27,05,41,8.60
2018,02,27,05,42,11.20
2018,02,27,05,43,12.30
2018,02,27,05,44,8.70
2018,02,27,05,45,9.00
2018,02,27,05,46,7.40
2018,02,27,05,47,4.00
2018,02,27,05,48,4.90
2018,02,27,05,49,6.90
2018,02,27,05,50,8.70
2018,02,27,05,51,7.20
2018,02,27,05,52,7.60
2018,02,27,05,53,5.80
2018,02,27,05,54,4.10
2018,02,27,05,55,6.60
2018,02,27,05,56,5.60
2018,02,27,05,57,10.30
2018,02,27,05,58,7.10
2018,02,27,05,59,4.50
2018,02,27,06,00,5.50
2018,02,27,06,01,7.80
2018,02,27,06,02,7.30
2018,02,27,06,03,5.10
2018,02,27,06,04,4.60
2018,02,27,06,05,5.80
2018,02,27,06,06,6.00
2018,02,27,06,07,4.50
2018,02,27,06,08,5.90
2018,02,27,06,09,7.10
2018,02,27,06,10,5.60
2018,02,27,06,11,3.10
2018,02,27,06,12,4.10
2018,02,27,06,13,6.60
2018,02,27,06,14,5.60
2018,02,27,06,15,4.70
2018,02,27,06,16,4.60
2018,02,27,06,17,5.00
2018,02,27,06,18,5.20
2018,02,27,06,19,6.10
2018,02,27,06,20,5.10
2018,02,27,06,21,3.60
2018,02,27,06,22,3.70
2018,02,27,06,23,2.80
2018,02,27,06,24,3.40
2018,02,27,06,25,7.30
2018,02,27,06,26,7.20
2018,02,27,06,27,7.80
2018,02,27,06,28,6.90
2018,02,27,06,29,7.10
2018,02,27,06,30,6.40
2018,02,27,06,31,8.20
2018,02,27,06,32,7.70
2018,02,27,06,33,5.70
2018,02,27,06,34,7.90
2018,02,27,06,35,5.40
2018,02,27,06,36,4.50
2018,02,27,06,37,5.70
2018,02,27,06,38,4.30
2018,02,27,06,39,2.50
2018,02,27,06,40,3.50
2018,02,27,06,41,4.60
2018,02,27,06,42,5.20
2018,02,27,06,43,4.50
2018,02,27,06,44,6.60
2018,02,27,06,45,4.20
2018,02,27,06,46,4.00
2018,02,27,06,47,7.60
2018,02,27,06,48,7.30
2018,02,27,06,49,5.60
2018,02,27,06,50,5.10
2018,02,27,06,51,6.30
2018,02,27,06,52,8.20
2018,02,27,06,53,4.60
2018,02,27,06,54,3.80
2018,02,27,06,55,3.60
2018,02,27,06,56,4.60
2018,02,27,06,57,5.10
2018,02,27,06,58,4.00
2018,02,27,06,59,0.70
2018,02,27,07,00,2.90
2018,02,27,07,01,4.00
2018,02,27,07,02,3.50
2018,02,27,07,03,4.50
2018,02,27,07,04,5.40
2018,02,27,07,05,4.00
2018,02,27,07,06,5.70
2018,02,27,07,07,5.50
2018,02,27,07,08,3.90
2018,02,27,07,09,5.10
2018,02,27,07,10,4.80
2018,02,27,07,11,7.90
2018,02,27,07,12,8.60
2018,02,27,07,13,5.90
2018,02,27,07,14,8.10
2018,02,27,07,15,7.60
2018,02,27,07,16,7.20
2018,02,27,07,17,11.00
2018,02,27,07,18,8.80
2018,02,27,07,19,9.20
2018,02,27,07,20,6.30
2018,02,27,07,21,6.20
2018,02,27,07,22,8.10
2018,02,27,07,23,5.40
2018,02,27,07,24,6.70
2018,02,27,07,25,4.90
2018,02,27,07,26,3.50
2018,02,27,07,27,6.30
2018,02,27,07,28,7.80
2018,02,27,07,29,12.70
2018,02,27,07,30,11.70
2018,02,27,07,31,13.90
2018,02,27,07,32,12.50
2018,02,27,07,33,11.70
2018,02,27,07,34,12.50
2018,02,27,07,35,8.80
2018,02,27,07,36,7.50
2018,02,27,07,37,11.20
2018,02,27,07,38,9.40
2018,02,27,07,39,10.10
2018,02,27,07,40,6.50
2018,02,27,07,41,6.30
2018,02,27,07,42,7.10
2018,02,27,07,43,5.70
2018,02,27,07,44,4.80
2018,02,27,07,45,6.90
2018,02,27,07,46,8.00
2018,02,27,07,47,6.10
2018,02,27,07,48,5.40
2018,02,27,07,49,3.00
2018,02,27,07,50,2.60
2018,02,27,07,51,2.90
2018,02,27,07,52,1.50
2018,02,27,07,53,2.20
2018,02,27,07,54,2.60
2018,02,27,07,55,2.70
2018,02,27,07,56,4.60
2018,02,27,07,57,4.30
2018,02,27,07,58,4.80
2018,02,27,07,59,2.90
2018,02,27,08,00,3.80
2018,02,27,08,01,3.70
2018,02,27,08,02,6.90
2018,02,27,08,03,4.90
2018,02,27,08,04,1.20
2018,02,27,08,05,2.20
2018,02,27,08,06,2.00
2018,02,27,08,07,0.40
2018,02,27,08,08,3.70
2018,02,27,08,09,2.30
2018,02,27,08,10,2.30
2018,02,27,08,11,3.70
2018,02,27,08,12,4.30
2018,02,27,08,13,5.20
2018,02,27,08,14,4.00
2018,02,27,08,15,2.80
2018,02,27,08,16,4.80
2018,02,27,08,17,3.40
2018,02,27,08,18,3.70
2018,02,27,08,19,3.60
2018,02,27,08,20,3.20
2018,02,27,08,21,5.50
2018,02,27,08,22,3.50
2018,02,27,08,23,2.70
2018,02,27,08,24,1.70
2018,02,27,08,25,2.70
2018,02,27,08,26,3.70
2018,02,27,08,27,0.70
2018,02,27,08,28,1.50
2018,02,27,08,29,0.50
2018,02,27,08,30,2.30
2018,02,27,08,31,2.30
2018,02,27,08,32,3.00
2018,02,27,08,33,4.10
2018,02,27,08,34,4.00
2018,02,27,08,35,2.40
2018,02,27,08,36,0.20
2018,02,27,08,37,0.00
2018,02,27,08,38,0.00
2018,02,27,08,39,0.60
2018,02,27,08,40,0.00
2018,02,27,08,41,0.30
2018,02,27,08,42,2.60
2018,02,27,08,43,2.60
2018,02,27,08,44,3.60
2018,02,27,08,45,0.50
2018,02,27,08,46,0.10
2018,02,27,08,47,0.10
2018,02,27,08,48,0.10
2018,02,27,08,49,0.50
2018,02,27,08,50,0.30
2018,02,27,08,51,3.50
2018,02,27,08,52,1.40
2018,02,27,08,53,1.20
2018,02,27,08,54,1.30
2018,02,27,08,55,3.50
2018,02,27,08,56,4.00
2018,02,27,08,57,0.30
2018,02,27,08,58,0.80
2018,02,27,08,59,3.10
2018,02,27,09,00,2.00
2018,02,27,09,01,4.40
2018,02,27,09,02,1.70
2018,02,27,09,03,1.00
2018,02,27,09,04,2.90
2018,02,27,09,05,4.60
2018,02,27,09,06,4.80
2018,02,27,09,07,7.20
2018,02,27,09,08,6.30
2018,02,27,09,09,9.50
2018,02,27,09,10,6.00
2018,02,27,09,11,6.50
2018,02,27,09,12,5.80
2018,02,27,09,13,6.70
2018,02,27,09,14,3.90
2018,02,27,09,15,4.00
2018,02,27,09,16,7.50
2018,02,27,09,17,7.00
2018,02,27,09,18,7.30
2018,02,27,09,19,6.50
2018,02,27,09,20,5.40
2018,02,27,09,21,6.90
2018,02,27,09,22,8.10
2018,02,27,09,23,10.20
2018,02,27,09,24,6.80
2018,02,27,09,25,9.80
2018,02,27,09,26,7.10
2018,02,27,09,27,7.10
2018,02,27,09,28,8.10
2018,02,27,09,29,10.10
2018,02,27,09,30,8.70
2018,02,27,09,31,7.70
2018,02,27,09,32,7.50
2018,02,27,09,33,7.40
2018,02,27,09,34,8.10
2018,02,27,09,35,8.50
2018,02,27,09,36,9.40
2018,02,27,09,37,10.20
2018,02,27,09,38,11.60
2018,02,27,09,39,11.70
2018,02,27,09,40,11.00
2018,02,27,09,41,10.40
2018,02,27,09,42,9.30
2018,02,27,09,43,10.10
2018,02,27,09,44,11.90
2018,02,27,09,45,10.90
2018,02,27,09,46,11.10
2018,02,27,09,47,12.90
2018,02,27,09,48,15.40
2018,02,27,09,49,14.40
2018,02,27,09,50,16.80
2018,02,27,09,51,16.20
2018,02,27,09,52,10.80
2018,02,27,09,53,8.50
2018,02,27,09,54,10.90
2018,02,27,09,55,10.80
2018,02,27,09,56,7.50
2018,02,27,09,57,10.90
2018,02,27,09,58,20.40
2018,02,27,09,59,14.90
2018,02,27,10,00,14.80
2018,02,27,10,01,12.30
2018,02,27,10,02,7.90
2018,02,27,10,03,12.90
2018,02,27,10,04,11.40
2018,02,27,10,05,10.20
2018,02,27,10,06,7.80
2018,02,27,10,07,10.90
2018,02,27,10,08,8.10
2018,02,27,10,09,15.70
2018,02,27,10,10,18.70
2018,02,27,10,11,14.20
2018,02,27,10,12,9.70
2018,02,27,10,13,11.10
2018,02,27,10,14,9.50
2018,02,27,10,15,10.10
2018,02,27,10,16,8.50
2018,02,27,10,17,10.00
2018,02,27,10,18,17.30
2018,02,27,10,19,12.90
2018,02,27,10,20,12.00
2018,02,27,10,21,11.90
2018,02,27,10,22,15.10
2018,02,27,10,23,15.90
2018,02,27,10,24,14.40
2018,02,27,10,25,12.30
2018,02,27,10,26,15.60
2018,02,27,10,27,11.60
2018,02,27,10,28,16.80
2018,02,27,10,29,10.40
2018,02,27,10,30,12.10
2018,02,27,10,31,15.60
2018,02,27,10,32,17.60
2018,02,27,10,33,14.70
2018,02,27,10,34,17.50
2018,02,27,10,35,18.90
2018,02,27,10,36,19.40
2018,02,27,10,37,12.80
2018,02,27,10,38,10.60
2018,02,27,10,39,14.50
2018,02,27,10,40,18.80
2018,02,27,10,41,15.40
2018,02,27,10,42,11.20
2018,02,27,10,43,18.40
2018,02,27,10,44,20.70
2018,02,27,10,45,10.80
2018,02,27,10,46,14.30
2018,02,27,10,47,17.30
2018,02,27,10,48,17.50
2018,02,27,10,49,14.10
2018,02,27,10,50,11.20
2018,02,27,10,51,19.80
2018,02,27,10,52,10.20
2018,02,27,10,53,12.20
2018,02,27,10,54,12.10
2018,02,27,10,55,14.00
2018,02,27,10,56,15.30
2018,02,27,10,57,11.10
2018,02,27,10,58,10.90
2018,02,27,10,59,13.90
2018,02,27,11,00,11.50
2018,02,27,11,01,13.20
2018,02,27,11,02,18.70
2018,02,27,11,03,17.80
2018,02,27,11,04,15.30
2018,02,27,11,05,15.30
2018,02,27,11,06,16.60
2018,02,27,11,07,8.50
2018,02,27,11,08,11.40
2018,02,27,11,09,17.30
2018,02,27,11,10,19.40
2018,02,27,11,11,21.60
2018,02,27,11,12,13.90
2018,02,27,11,13,18.20
2018,02,27,11,14,15.00
2018,02,27,11,15,21.00
2018,02,27,11,16,14.30
2018,02,27,11,17,9.70
2018,02,27,11,18,10.60
2018,02,27,11,19,19.00
2018,02,27,11,20,15.30
2018,02,27,11,21,20.10
2018,02,27,11,22,15.30
2018,02,27,11,23,13.70
2018,02,27,11,24,17.10
2018,02,27,11,25,15.00
2018,02,27,11,26,11.10
2018,02,27,11,27,12.80
2018,02,27,11,28,12.60
2018,02,27,11,29,14.40
2018,02,27,11,30,11.40
2018,02,27,11,31,8.90
2018,02,27,11,32,14.00
2018,02,27,11,33,8.00
2018,02,27,11,34,18.90
2018,02,27,11,35,11.50
2018,02,27,11,36,10.30
2018,02,27,11,37,10.20
2018,02,27,11,38,9.20
2018,02,27,11,39,7.60
2018,02,27,11,40,7.40
2018,02,27,11,41,7.00
2018,02,27,11,42,3.30
2018,02,27,11,43,14.60
2018,02,27,11,44,20.90
2018,02,27,11,45,12.00
2018,02,27,11,46,14.40
2018,02,27,11,47,10.90
2018,02,27,11,48,9.20
2018,02,27,11,49,10.30
2018,02,27,11,50,14.00
2018,02,27,11,51,15.00
2018,02,27,11,52,14.20
2018,02,27,11,53,18.20
2018,02,27,11,54,11.40
2018,02,27,11,55,12.60
2018,02,27,11,56,14.80
2018,02,27,11,57,12.40
2018,02,27,11,58,16.70
2018,02,27,11,59,9.40
2018,02,27,12,00,15.40
2018,02,27,12,01,16.10
2018,02,27,12,02,12.40
2018,02,27,12,03,7.50
2018,02,27,12,04,14.20
2018,02,27,12,05,8.70
2018,02,27,12,06,13.50
2018,02,27,12,07,8.40
2018,02,27,12,08,13.20
2018,02,27,12,09,20.60
2018,02,27,12,10,20.70
2018,02,27,12,11,23.10
2018,02,27,12,12,18.00
2018,02,27,12,13,16.50
2018,02,27,12,14,15.10
2018,02,27,12,15,18.00
2018,02,27,12,16,16.30
2018,02,27,12,17,10.60
2018,02,27,12,18,18.60
2018,02,27,12,19,18.50
2018,02,27,12,20,18.60
2018,02,27,12,21,17.80
2018,02,27,12,22,16.60
2018,02,27,12,23,14.40
2018,02,27,12,24,14.40
2018,02,27,12,25,12.50
2018,02,27,12,26,14.10
2018,02,27,12,27,15.00
2018,02,27,12,28,12.70
2018,02,27,12,29,10.20
2018,02,27,12,30,13.50
2018,02,27,12,31,9.60
2018,02,27,12,32,10.40
2018,02,27,12,33,10.00
2018,02,27,12,34,17.00
2018,02,27,12,35,12.20
2018,02,27,12,36,10.50
2018,02,27,12,37,15.90
2018,02,27,12,38,14.40
2018,02,27,12,39,12.30
2018,02,27,12,40,16.00
2018,02,27,12,41,14.20
2018,02,27,12,42,10.10
2018,02,27,12,43,5.80
2018,02,27,12,44,10.30
2018,02,27,12,45,11.00
2018,02,27,12,46,13.80
2018,02,27,12,47,10.50
2018,02,27,12,48,17.60
2018,02,27,12,49,15.00
2018,02,27,12,50,9.00
2018,02,27,12,51,10.50
2018,02,27,12,52,14.10
2018,02,27,12,53,10.10
2018,02,27,12,54,14.40
2018,02,27,12,55,12.10
2018,02,27,12,56,11.30
2018,02,27,12,57,17.00
2018,02,27,12,58,19.50
2018,02,27,12,59,14.50
2018,02,27,13,00,12.50
2018,02,27,13,01,11.70
2018,02,27,13,02,11.70
2018,02,27,13,03,10.90
2018,02,27,13,04,10.60
2018,02,27,13,05,5.60
2018,02,27,13,06,13.10
2018,02,27,13,07,8.50
2018,02,27,13,08,13.70
2018,02,27,13,09,11.10
2018,02,27,13,10,15.10
2018,02,27,13,11,15.90
2018,02,27,13,12,11.70
2018,02,27,13,13,12.00
2018,02,27,13,14,13.70
2018,02,27,13,15,16.20
2018,02,27,13,16,15.00
2018,02,27,13,17,14.50
2018,02,27,13,18,15.60
2018,02,27,13,19,15.70
2018,02,27,13,20,10.70
2018,02,27,13,21,13.80
2018,02,27,13,22,14.00
2018,02,27,13,23,12.00
2018,02,27,13,24,9.60
2018,02,27,13,25,13.20
2018,02,27,13,26,9.50
2018,02,27,13,27,13.10
2018,02,27,13,28,14.40
2018,02,27,13,29,13.90
2018,02,27,13,30,12.60
2018,02,27,13,31,14.70
2018,02,27,13,32,18.40
2018,02,27,13,33,14.90
2018,02,27,13,34,14.70
2018,02,27,13,35,8.90
2018,02,27,13,36,11.50
2018,02,27,13,37,15.00
2018,02,27,13,38,10.70
2018,02,27,13,39,15.30
2018,02,27,13,40,18.10
2018,02,27,13,41,15.60
2018,02,27,13,42,14.00
2018,02,27,13,43,9.50
2018,02,27,13,44,11.70
2018,02,27,13,45,12.90
2018,02,27,13,46,15.10
2018,02,27,13,47,17.70
2018,02,27,13,48,14.30
2018,02,27,13,49,17.50
2018,02,27,13,50,15.60
2018,02,27,13,51,14.80
2018,02,27,13,52,19.50
2018,02,27,13,53,13.10
2018,02,27,13,54,14.90
2018,02,27,13,55,10.00
2018,02,27,13,56,12.00
2018,02,27,13,57,11.60
2018,02,27,13,58,14.00
2018,02,27,13,59,12.30
2018,02,27,14,00,11.30
2018,02,27,14,01,17.00
2018,02,27,14,02,16.40
2018,02,27,14,03,13.90
2018,02,27,14,04,15.70
2018,02,27,14,05,17.70
2018,02,27,14,06,19.70
2018,02,27,14,07,16.50
2018,02,27,14,08,15.90
2018,02,27,14,09,23.70
2018,02,27,14,10,20.10
2018,02,27,14,11,17.20
2018,02,27,14,12,16.80
2018,02,27,14,13,18.50
2018,02,27,14,14,14.90
2018,02,27,14,15,12.80
2018,02,27,14,16,17.00
2018,02,27,14,17,13.10
2018,02,27,14,18,16.30
2018,02,27,14,19,19.20
2018,02,27,14,20,20.20
2018,02,27,14,21,18.30
2018,02,27,14,22,19.10
2018,02,27,14,23,16.00
2018,02,27,14,24,16.60
2018,02,27,14,25,13.60
2018,02,27,14,26,12.10
2018,02,27,14,27,15.70
2018,02,27,14,28,22.00
2018,02,27,14,29,21.90
2018,02,27,14,30,18.30
2018,02,27,14,31,11.20
2018,02,27,14,32,16.70
2018,02,27,14,33,22.60
2018,02,27,14,34,17.80
2018,02,27,14,35,17.20
2018,02,27,14,36,13.30
2018,02,27,14,37,12.20
2018,02,27,14,38,21.00
2018,02,27,14,39,19.20
2018,02,27,14,40,18.70
2018,02,27,14,41,15.30
2018,02,27,14,42,7.30
2018,02,27,14,43,11.90
2018,02,27,14,44,14.10
2018,02,27,14,45,9.70
2018,02,27,14,46,11.50
2018,02,27,14,47,18.40
2018,02,27,14,48,22.20
2018,02,27,14,49,15.70
2018,02,27,14,50,18.80
2018,02,27,14,51,11.20
2018,02,27,14,52,11.50
2018,02,27,14,53,14.40
2018,02,27,14,54,16.40
2018,02,27,14,55,13.60
2018,02,27,14,56,13.00
2018,02,27,14,57,13.70
2018,02,27,14,58,11.10
2018,02,27,14,59,15.60
2018,02,27,15,00,12.80
2018,02,27,15,01,14.70
2018,02,27,15,02,15.60
2018,02,27,15,03,14.70
2018,02,27,15,04,21.50
2018,02,27,15,05,18.70
2018,02,27,15,06,19.00
2018,02,27,15,07,15.90
2018,02,27,15,08,10.40
2018,02,27,15,09,18.70
2018,02,27,15,10,19.10
2018,02,27,15,11,17.40
2018,02,27,15,12,12.90
2018,02,27,15,13,14.70
2018,02,27,15,14,15.20
2018,02,27,15,15,11.40
2018,02,27,15,16,17.80
2018,02,27,15,17,12.20
2018,02,27,15,18,16.50
2018,02,27,15,19,17.00
2018,02,27,15,20,17.20
2018,02,27,15,21,19.70
2018,02,27,15,22,20.30
2018,02,27,15,23,13.70
2018,02,27,15,24,10.80
2018,02,27,15,25,11.00
2018,02,27,15,26,15.40
2018,02,27,15,27,12.20
2018,02,27,15,28,12.60
2018,02,27,15,29,17.40
2018,02,27,15,30,12.00
2018,02,27,15,31,18.10
2018,02,27,15,32,16.90
2018,02,27,15,33,18.80
2018,02,27,15,34,12.30
2018,02,27,15,35,15.70
2018,02,27,15,36,18.70
2018,02,27,15,37,15.00
2018,02,27,15,38,11.00
2018,02,27,15,39,10.10
2018,02,27,15,40,9.50
2018,02,27,15,41,9.80
2018,02,27,15,42,11.00
2018,02,27,15,43,4.90
2018,02,27,15,44,8.30
2018,02,27,15,45,11.20
2018,02,27,15,46,12.50
2018,02,27,15,47,9.30
2018,02,27,15,48,5.80
2018,02,27,15,49,3.40
2018,02,27,15,50,7.20
2018,02,27,15,51,10.70
2018,02,27,15,52,18.70
2018,02,27,15,53,16.70
2018,02,27,15,54,14.10
2018,02,27,15,55,15.80
2018,02,27,15,56,16.40
2018,02,27,15,57,9.40
2018,02,27,15,58,11.90
2018,02,27,15,59,14.80
2018,02,27,16,00,19.40
2018,02,27,16,01,19.70
2018,02,27,16,02,17.50
2018,02,27,16,03,20.10
2018,02,27,16,04,19.00
2018,02,27,16,05,24.10
2018,02,27,16,06,21.30
2018,02,27,16,07,19.30
2018,02,27,16,08,23.30
2018,02,27,16,09,19.10
2018,02,27,16,10,17.70
2018,02,27,16,11,19.80
2018,02,27,16,12,14.80
2018,02,27,16,13,18.60
2018,02,27,16,14,21.90
2018,02,27,16,15,13.40
2018,02,27,16,16,14.60
2018,02,27,16,17,18.90
2018,02,27,16,18,13.60
2018,02,27,16,19,15.30
2018,02,27,16,20,17.60
2018,02,27,16,21,22.20
2018,02,27,16,22,23.20
2018,02,27,16,23,14.20
2018,02,27,16,24,14.20
2018,02,27,16,25,14.80
2018,02,27,16,26,18.40
2018,02,27,16,27,15.00
2018,02,27,16,28,18.00
2018,02,27,16,29,13.10
2018,02,27,16,30,15.30
2018,02,27,16,31,8.60
2018,02,27,16,32,7.40
2018,02,27,16,33,13.40
2018,02,27,16,34,12.80
2018,02,27,16,35,8.60
2018,02,27,16,36,7.00
2018,02,27,16,37,11.30
2018,02,27,16,38,13.50
2018,02,27,16,39,6.10
2018,02,27,16,40,6.60
2018,02,27,16,41,6.60
2018,02,27,16,42,9.40
2018,02,27,16,43,11.50
2018,02,27,16,44,12.80
2018,02,27,16,45,12.90
2018,02,27,16,46,8.60
2018,02,27,16,47,8.80
2018,02,27,16,48,15.30
2018,02,27,16,49,12.20
2018,02,27,16,50,10.60
2018,02,27,16,51,10.30
2018,02,27,16,52,10.70
2018,02,27,16,53,5.10
2018,02,27,16,54,10.00
2018,02,27,16,55,11.40
2018,02,27,16,56,13.10
2018,02,27,16,57,11.70
2018,02,27,16,58,6.10
2018,02,27,16,59,8.60
2018,02,27,17,00,9.70
2018,02,27,17,01,1.80
2018,02,27,17,02,7.20
2018,02,27,17,03,11.80
2018,02,27,17,04,10.30
2018,02,27,17,05,11.20
2018,02,27,17,06,9.70
2018,02,27,17,07,13.50
2018,02,27,17,08,9.40
2018,02,27,17,09,6.10
2018,02,27,17,10,7.30
2018,02,27,17,11,9.70
2018,02,27,17,12,13.30
2018,02,27,17,13,15.00
2018,02,27,17,14,8.60
2018,02,27,17,15,12.10
2018,02,27,17,16,12.10
2018,02,27,17,17,11.20
2018,02,27,17,18,11.00
2018,02,27,17,19,9.70
2018,02,27,17,20,7.50
2018,02,27,17,21,6.30
2018,02,27,17,22,10.70
2018,02,27,17,23,11.60
2018,02,27,17,24,11.30
2018,02,27,17,25,9.70
2018,02,27,17,26,9.40
2018,02,27,17,27,13.90
2018,02,27,17,28,10.10
2018,02,27,17,29,11.60
2018,02,27,17,30,14.00
2018,02,27,17,31,8.50
2018,02,27,17,32,15.30
2018,02,27,17,33,15.10
2018,02,27,17,34,12.90
2018,02,27,17,35,15.50
2018,02,27,17,36,10.50
2018,02,27,17,37,18.70
2018,02,27,17,38,15.10
2018,02,27,17,39,15.50
2018,02,27,17,40,11.10